Lid_Strength_Index
-0 2 2 5 10 10 13 11 8 8 7 6 5 6 7 6 8 11 2 1 0 0 -0 -0 -1 -1 -1 -1 -1 -1 -1 -1 -2 -1 -1 -2 -2 -2 -2 -2 -2 -2 -2 -2 -2 -2 -1 -1 -1
3 3 6 9 11 14 13 8 8 7 6 5 5 5 7 8 4 4 3 1 0 -0 -0 -0 -1 -1 -1 -1 -1 -1 -1 -1 -1 -1 -1 -1 -1 -2 -2 -2 -2 -2 -1 -1 -1 -1 -1 -1 -1
1 4 8 11 11 13 12 8 7 7 5 6 6 4 5 7 3 3 1 0 0 0 -0 -0 -1 -1 -1 -1 -1 -1 -1 -1 -1 -1 -1 -1 -1 -2 -2 -2 -2 -2 -1 -1 -1 -1 -1 -1 -1
5 8 8 12 12 9 8 7 6 7 6 5 6 7 4 2 3 3 0 0 1 0 -0 -1 -1 -1 -1 -1 -1 -1 -1 -1 -1 -1 -1 -1 -1 -2 -2 -2 -2 -2 -1 -1 -1 -1 -1 -1 -1
7 10 13 13 11 8 8 7 7 8 7 6 5 7 6 3 3 1 1 0 1 0 -0 -0 -1 -1 -1 -1 -1 -1 -1 -1 -1 -1 -1 -1 -1 -2 -2 -2 -2 -2 -1 -1 -1 -1 -1 -1 -2
11 10 13 14 11 8 7 6 7 7 6 6 6 7 6 3 2 1 1 1 0 0 -0 -0 -1 -1 -1 -1 -1 -1 -1 -1 -1 -1 -1 -2 -1 -2 -2 -2 -2 -2 -2 -2 -1 -1 -2 -2 -2
11 12 13 12 10 9 8 6 7 7 7 7 5 8 5 3 2 1 1 0 0 0 -0 -0 -0 -1 -1 -1 -1 -1 -1 -1 -1 -1 -1 -1 -2 -1 -2 -2 -2 -2 -2 -2 -2 -2 -2 -2 -2
9 11 12 11 11 10 7 6 6 6 7 4 3 6 6 4 1 2 1 1 1 0 0 0 0 0 0 -0 -1 -1 -1 -1 -1 -1 -1 -1 -1 -1 -1 -1 -1 -2 -2 -2 -2 -2 -2 -2 -2
8 12 12 10 9 9 8 8 5 4 6 5 4 4 3 2 1 2 2 2 1 1 1 0 0 0 0 0 -1 -1 -1 -1 -1 -1 -1 -1 0 -0 -1 -1 -1 -2 -2 -2 -2 -2 -2 -1 -1
11 12 11 8 8 9 8 7 6 6 7 6 5 3 3 3 2 3 3 3 2 2 1 0 0 0 1 -0 -0 0 -0 -0 0 0 0 0 0 0 -1 -1 -2 -2 -2 -2 -2 -2 -1 -1 -0
10 10 8 7 7 7 7 7 6 7 8 6 6 5 5 4 3 3 3 2 2 2 1 1 1 0 1 0 -0 -0 -0 -0 0 0 0 0 -0 0 -0 -0 -0 -0 -1 -0 -1 -0 -0 -0 -0
12 8 8 8 8 8 8 7 7 6 6 4 4 4 4 4 3 3 3 3 2 2 1 1 1 1 1 0 -0 0 0 -0 -0 -0 -0 -0 0 0 0 0 0 0 0 0 0 -0 -0 -0 -0
10 9 9 7 8 9 7 7 7 7 5 4 3 4 4 4 3 3 2 2 2 2 1 1 1 1 0 0 1 1 1 0 0 0 -0 -0 0 1 1 1 0 0 0 0 0 0 0 0 -0
8 7 8 8 9 8 8 7 7 6 5 4 4 4 4 3 4 3 3 3 2 2 2 1 1 0 1 0 0 1 1 1 1 1 -0 0 0 0 0 1 1 1 1 0 0 0 1 0 0
7 9 8 8 8 8 7 8 7 6 5 5 5 5 4 4 3 3 3 3 2 2 1 1 1 0 0 1 0 0 1 0 0 0 0 0 0 0 1 1 1 0 1 1 0 0 1 1 1
9 10 13 8 7 6 7 11 7 6 6 6 5 5 5 4 4 3 2 2 2 2 2 1 1 1 1 1 0 0 1 0 0 0 0 -0 0 0 0 1 1 0 1 1 1 1 1 1 1
10 12 11 9 7 7 8 10 7 5 6 6 7 5 5 5 4 3 2 2 2 2 2 1 1 1 1 0 0 0 0 0 0 0 0 0 -0 -0 0 0 0 0 1 2 1 1 1 2 2
12 12 12 11 8 8 10 10 7 6 6 6 6 6 5 5 5 3 3 2 2 2 2 1 1 1 1 1 1 1 1 1 0 0 0 -0 -0 -0 0 1 1 0 1 1 1 2 2 2 4
9 10 11 9 8 9 10 10 7 6 7 7 6 6 6 6 4 3 3 3 2 2 2 2 1 1 1 1 2 2 2 1 1 2 1 1 1 0 0 0 1 1 2 2 3 3 4 4 4
8 10 11 9 7 9 10 10 8 7 7 7 6 7 6 6 5 4 3 4 4 3 2 2 1 1 1 2 1 1 1 1 2 2 1 2 2 2 1 2 1 1 2 3 3 4 4 4 4
9 11 10 11 9 9 9 11 9 7 7 6 6 6 6 6 6 5 4 3 3 3 3 2 2 1 2 1 1 1 1 1 2 2 3 2 2 2 2 1 2 1 1 3 3 3 4 4 2
11 8 8 9 11 14 10 15 11 9 8 7 7 7 6 6 5 5 4 4 3 3 2 2 2 2 2 2 2 2 4 4 3 2 2 3 2 2 2 2 2 2 2 2 1 1 2 3 4
10 7 9 9 11 12 11 14 12 9 9 8 8 7 6 5 5 5 4 3 3 2 2 2 2 2 2 2 2 2 3 2 2 2 2 3 3 3 2 2 2 2 2 2 2 1 1 1 2
6 9 9 10 12 14 12 12 11 11 10 8 7 7 6 5 5 4 3 3 3 2 2 2 2 2 2 2 2 3 3 3 3 4 3 3 3 2 2 1 2 2 2 2 1 1 1 1 1
9 11 15 16 16 15 11 12 11 9 7 7 7 7 6 5 5 5 4 4 3 3 2 2 2 2 2 1 1 2 2 3 2 3 3 3 3 3 2 2 2 2 2 2 1 1 1 1 1
10 11 14 18 17 14 11 13 10 7 7 6 6 6 6 5 5 5 4 3 3 3 3 2 2 2 2 2 2 2 2 2 2 1 3 2 3 3 2 1 2 2 1 1 1 1 1 1 2
10 12 10 13 13 14 12 11 9 8 8 7 7 6 6 6 5 5 4 3 3 3 3 2 2 2 2 2 2 2 1 1 2 2 2 2 2 2 2 2 2 2 2 2 2 3 3 2 2
9 9 13 14 17 18 14 13 12 10 10 8 8 7 6 5 5 4 4 4 3 2 2 2 2 2 2 2 2 2 2 1 1 2 2 2 2 3 3 3 3 3 3 2 2 3 3 3 2
10 12 12 13 13 16 16 13 10 10 9 9 8 7 6 6 5 5 4 3 3 2 2 3 2 2 2 2 2 2 1 1 2 2 2 2 3 3 3 3 4 4 4 4 5 5 4 3 2
9 10 10 13 15 14 15 14 9 8 7 7 7 7 6 5 5 5 4 3 3 3 3 3 3 2 2 2 2 2 2 1 2 2 2 3 3 4 4 4 4 4 4 5 5 4 4 4 4